Find Starlink 37948

NORAD ID: 69670 Int'l Des: 2026-143 Owner: SPXS Country: US Constellation: starlink operational
LEOCIRCULARRETROGRADE

現在のビュー

3D地球を読み込み中...

About Starlink 37948

Starlink 37948 (NORAD 69670) is a starlink constellation satellite (v2 mini) launched Jun 21, 2026 by SPXS of US. It operates in LEO, CIRCULAR, RETROGRADE orbit with a mass of 575.00 kg.

次回通過

Passes for default location (London). Set your location on the main map for personalized predictions.

高度履歴

Loading altitude history...

軌道要素

1 69670U 26143X 26235.56969949 .00015945 00000-0 49509-3 0 9993
2 69670 97.2844 279.1844 0001087 101.0323 259.1042 15.33451536 10869
Epoch: Aug 23, 2026 • Age: 19 hours

現在のステータス

高度 469.6 km
遠地点 / 近地点 N/A
速度 7.63 km/s
衛星直下点 -5.24°S, 178.66°W
打ち上げ日 Jun 21, 2026
運用期間 0.1 years
タイプ internet

技術仕様

分類 Payload
質量 575.00 kg
乾燥質量 530.00 kg
総質量 575.00 kg
長さ 0.30 m
直径 4.10 m
スパン 29.00 m
形状 Box + pan
製造者 SPXS
バスタイプ Starlink V2MO
フェーズステータス In Orbit
所有者/国 SPXS/US

Most Searched